Weather History for KENL - March, 2013

Change the Weather History Date:

Monday, March 4, 2013

  Actual Average (KSLO) Record (KSLO)
Temperature  
Mean Temperature 40 °F -  
Max Temperature 48 °F 51 °F 79 °F (1983)
Min Temperature 33 °F 33 °F 0 °F (1978)
Degree Days  
Heating Degree Days 24    
Moisture  
Dew Point 29 °F    
Average Humidity 62    
Maximum Humidity 75    
Minimum Humidity 51    
Precipitation  
Precipitation 0.00 in - - ()
Sea Level Pressure  
Sea Level Pressure 29.92 in    
Wind  
Wind Speed 8 mph (ESE)    
Max Wind Speed 18 mph    
Max Gust Speed 29 mph    
Visibility 10 miles    
Events Rain , Snow    
Averages and records for this station are not official NWS values.
T = Trace of Precipitation, MM = Missing Value Source: NWS Daily Summary

Daily Weather History Graph

Daily Weather History Graph

Search for Another Location

Airport or City:

Trip Planner

Search our weather history database for the weather conditions in past years. The results will help you decide how hot, cold, wet, or windy it might be!

Date:

Astronomy

Mar. 04, 2013 Rise Set
Actual Time 6:23 AM CST 5:52 PM CST
Civil Twilight 5:57 AM CST 6:19 PM CST
Nautical Twilight 5:26 AM CST 6:50 PM CST
Astronomical Twilight 4:55 AM CST 7:20 PM CST
Moon 12:30 AM CST (3/4) 10:37 AM CST (3/4)
Length of Visible Light 12h 22m
Length of Day
11h 29m
Waning Gibbous, 52% of the Moon is Illuminated
Mar 4
Waning Gibbous
Mar 4
Last Quarter
Mar 11
New
Mar 19
First Quarter
Mar 27
Full

Hourly Weather History & Observations

Time (CST) Temp. Windchill Dew Point Humidity Pressure Visibility Wind Dir Wind Speed Gust Speed Precip Events Conditions
12:15 AM 34.3 °F 31.4 °F 23.2 °F 64% 30.08 in 10.0 mi ESE 3.5 mph - N/A   Overcast
12:55 AM 34.3 °F 31.4 °F 23.5 °F 65% 30.08 in 10.0 mi ESE 3.5 mph - N/A   Overcast
1:15 AM 33.8 °F 30.8 °F 23.0 °F 65% 30.08 in 10.0 mi East 3.5 mph - N/A   Overcast
1:35 AM 34.3 °F 30.2 °F 23.9 °F 66% 30.08 in 10.0 mi ESE 4.6 mph - N/A   Overcast
1:55 AM 34.3 °F 30.2 °F 24.1 °F 66% 30.08 in 10.0 mi East 4.6 mph - N/A   Overcast
2:15 AM 34.3 °F 30.2 °F 24.6 °F 68% 30.07 in 10.0 mi ESE 4.6 mph - N/A   Overcast
2:35 AM 34.3 °F 28.4 °F 25.0 °F 69% 30.05 in 10.0 mi East 6.9 mph - N/A   Overcast
2:55 AM 34.7 °F 28.8 °F 24.6 °F 67% 30.05 in 10.0 mi East 6.9 mph - N/A   Overcast
3:15 AM 34.7 °F 30.6 °F 24.8 °F 67% 30.05 in 10.0 mi ESE 4.6 mph - N/A   Overcast
3:35 AM 34.7 °F 28.8 °F 25.7 °F 70% 30.05 in 10.0 mi ESE 6.9 mph - N/A   Overcast
3:55 AM 34.3 °F 28.4 °F 26.1 °F 72% 30.05 in 7.0 mi ESE 6.9 mph - N/A   Overcast
4:15 AM 34.0 °F 28.0 °F 26.4 °F 74% 30.04 in 10.0 mi ESE 6.9 mph - N/A Snow Light Snow
4:35 AM 34.0 °F 27.2 °F 26.6 °F 74% 30.03 in 10.0 mi East 8.1 mph - N/A Rain Light Rain
4:55 AM 34.0 °F 27.2 °F 26.4 °F 74% 30.03 in 10.0 mi ESE 8.1 mph - N/A   Overcast
5:15 AM 34.0 °F 28.0 °F 26.8 °F 75% 30.03 in 10.0 mi East 6.9 mph - N/A   Overcast
5:35 AM 34.0 °F 26.6 °F 26.8 °F 75% 30.04 in 10.0 mi ESE 9.2 mph - N/A   Overcast
5:55 AM 34.2 °F 26.2 °F 27.0 °F 75% 30.03 in 10.0 mi ESE 10.4 mph - N/A   Overcast
6:15 AM 34.0 °F 26.6 °F 26.8 °F 75% 30.02 in 10.0 mi ESE 9.2 mph - N/A   Overcast
6:35 AM 34.0 °F 26.0 °F 26.6 °F 74% 30.01 in 10.0 mi ESE 10.4 mph - N/A   Overcast
6:55 AM 34.0 °F 26.6 °F 27.0 °F 75% 30.01 in 10.0 mi ESE 9.2 mph - N/A   Mostly Cloudy
7:15 AM 34.3 °F 25.9 °F 26.8 °F 74% 30.01 in 10.0 mi East 11.5 mph - N/A   Scattered Clouds
7:35 AM 34.7 °F 26.9 °F 26.8 °F 73% 30.02 in 10.0 mi ESE 10.4 mph - N/A   Scattered Clouds
7:55 AM 35.1 °F 27.4 °F 27.0 °F 72% 30.01 in 10.0 mi ESE 10.4 mph 16.1 mph N/A   Clear
8:15 AM 36.5 °F 29.2 °F 27.5 °F 70% 30.00 in 10.0 mi ESE 10.4 mph 17.3 mph N/A   Clear
8:35 AM 37.6 °F 28.8 °F 27.9 °F 68% 29.99 in 10.0 mi ESE 15.0 mph 20.7 mph N/A   Clear
8:55 AM 38.8 °F 30.0 °F 28.0 °F 65% 29.98 in 10.0 mi ESE 16.1 mph 20.7 mph N/A   Clear
9:15 AM 38.8 °F 31.6 °F 28.0 °F 65% 29.97 in 10.0 mi ESE 11.5 mph 17.3 mph N/A   Mostly Cloudy
9:35 AM 40.6 °F 32.7 °F 28.6 °F 62% 29.96 in 10.0 mi ESE 15.0 mph 20.7 mph N/A   Scattered Clouds
9:55 AM 40.8 °F 33.3 °F 28.2 °F 61% 29.94 in 10.0 mi ESE 13.8 mph 23.0 mph N/A   Clear
10:15 AM 42.3 °F 34.1 °F 29.1 °F 60% 29.93 in 10.0 mi ESE 17.3 mph 23.0 mph N/A   Clear
10:35 AM 44.1 °F 36.5 °F 29.1 °F 56% 29.92 in 10.0 mi ESE 17.3 mph 20.7 mph N/A   Clear
10:55 AM 44.8 °F 38.3 °F 29.1 °F 54% 29.92 in 10.0 mi ESE 13.8 mph 20.7 mph N/A   Clear
11:15 AM 45.3 °F 38.4 °F 29.5 °F 54% 29.91 in 10.0 mi ESE 16.1 mph 23.0 mph N/A   Clear
11:35 AM 46.4 °F 39.2 °F 30.7 °F 54% 29.89 in 10.0 mi ESE 18.4 mph 21.9 mph N/A   Clear
11:55 AM 46.6 °F - 30.9 °F 54% 29.88 in 10.0 mi ESE 13.8 mph 20.7 mph N/A   Clear
12:15 PM 47.3 °F - 30.0 °F 51% 29.87 in 10.0 mi ESE 13.8 mph 21.9 mph N/A   Scattered Clouds
12:55 PM 46.9 °F - 29.8 °F 51% 29.84 in 10.0 mi SE 13.8 mph 28.8 mph N/A   Overcast
1:15 PM 47.1 °F - 30.7 °F 53% 29.83 in 10.0 mi ESE 13.8 mph 20.7 mph N/A   Overcast
1:35 PM 47.3 °F - 30.6 °F 52% 29.83 in 10.0 mi ESE 13.8 mph 24.2 mph N/A   Overcast
1:55 PM 47.7 °F - 30.7 °F 52% 29.83 in 10.0 mi ESE 9.2 mph - N/A   Overcast
2:15 PM 47.3 °F - 30.7 °F 53% 29.83 in 10.0 mi ESE 9.2 mph 19.6 mph N/A   Overcast
2:35 PM 47.3 °F - 30.9 °F 53% 29.84 in 10.0 mi ESE 10.4 mph 16.1 mph N/A   Overcast
2:55 PM 47.7 °F - 31.3 °F 53% 29.83 in 10.0 mi ESE 9.2 mph - N/A   Overcast
3:15 PM 48.2 °F - 32.0 °F 54% 29.82 in 10.0 mi East 9.2 mph - N/A   Overcast
3:35 PM 47.3 °F - 31.8 °F 55% 29.82 in 10.0 mi ESE 9.2 mph 17.3 mph N/A   Overcast
3:55 PM 46.9 °F - 32.2 °F 57% 29.83 in 10.0 mi ESE 10.4 mph - N/A   Overcast
4:15 PM 46.6 °F - 32.2 °F 57% 29.82 in 10.0 mi ESE 8.1 mph - N/A   Overcast
4:35 PM 46.4 °F 42.4 °F 32.0 °F 57% 29.82 in 10.0 mi East 8.1 mph - N/A   Overcast
4:55 PM 46.4 °F 41.5 °F 32.0 °F 57% 29.82 in 10.0 mi East 10.4 mph 16.1 mph N/A   Overcast
5:15 PM 46.4 °F 41.5 °F 31.6 °F 56% 29.82 in 10.0 mi East 10.4 mph - N/A   Overcast
5:35 PM 45.9 °F 41.7 °F 31.8 °F 58% 29.83 in 10.0 mi East 8.1 mph - N/A   Overcast
5:55 PM 45.7 °F 41.0 °F 31.1 °F 57% 29.83 in 10.0 mi East 9.2 mph 16.1 mph N/A   Overcast
6:15 PM 45.5 °F 40.8 °F 31.5 °F 58% 29.83 in 10.0 mi East 9.2 mph - N/A   Overcast
6:35 PM 45.5 °F 41.3 °F 31.6 °F 58% 29.84 in 10.0 mi East 8.1 mph - N/A   Overcast
6:55 PM 45.5 °F 41.3 °F 31.3 °F 58% 29.84 in 10.0 mi East 8.1 mph - N/A   Overcast
7:15 PM 45.3 °F 40.1 °F 31.6 °F 59% 29.84 in 10.0 mi East 10.4 mph 16.1 mph N/A   Overcast
7:35 PM 45.1 °F 40.3 °F 31.6 °F 59% 29.84 in 10.0 mi East 9.2 mph - N/A   Overcast
7:55 PM 45.5 °F 41.8 °F 31.5 °F 58% 29.84 in 10.0 mi ESE 6.9 mph - N/A   Overcast
8:15 PM 46.4 °F 42.4 °F 32.0 °F 57% 29.84 in 10.0 mi East 8.1 mph - N/A   Overcast
8:35 PM 44.8 °F 40.4 °F 31.8 °F 60% 29.84 in 10.0 mi East 8.1 mph - N/A   Overcast
8:55 PM 44.8 °F 40.4 °F 32.0 °F 61% 29.84 in 10.0 mi East 8.1 mph - N/A   Overcast
9:15 PM 44.6 °F 39.7 °F 32.0 °F 61% 29.83 in 10.0 mi East 9.2 mph - N/A   Overcast
9:35 PM 44.6 °F 40.2 °F 32.0 °F 61% 29.84 in 10.0 mi East 8.1 mph - N/A   Overcast
9:55 PM 44.6 °F 40.7 °F 32.0 °F 61% 29.83 in 10.0 mi East 6.9 mph - N/A   Overcast
10:15 PM 44.6 °F 40.2 °F 32.0 °F 61% 29.83 in 10.0 mi East 8.1 mph - N/A   Overcast
10:34 PM 44.6 °F 40.2 °F 32.0 °F 61% 29.82 in 10.0 mi East 8.1 mph - N/A   Overcast
10:55 PM 44.6 °F 40.7 °F 32.0 °F 61% 29.81 in 10.0 mi East 6.9 mph - N/A   Overcast
11:15 PM 44.6 °F 40.2 °F 32.0 °F 61% 29.80 in 10.0 mi East 8.1 mph - N/A   Overcast
11:35 PM 44.6 °F 40.7 °F 32.0 °F 61% 29.80 in 10.0 mi East 6.9 mph - N/A   Overcast
11:55 PM 44.4 °F 40.5 °F 32.0 °F 62% 29.80 in 10.0 mi East 6.9 mph - N/A   Overcast